Weather History for KAGC - January, 2012

Change the Weather History Date:

Wednesday, January 18, 2012

  Actual Average Record
Temperature  
Mean Temperature 28 °F -  
Max Temperature 35 °F 37 °F 51 °F (1999)
Min Temperature 19 °F 22 °F 1 °F (1997)
Degree Days  
Heating Degree Days 37    
Moisture  
Dew Point 16 °F    
Average Humidity 64    
Maximum Humidity 75    
Minimum Humidity 53    
Precipitation  
Precipitation 0.00 in - - ()
Sea Level Pressure  
Sea Level Pressure 30.10 in    
Wind  
Wind Speed 12 mph (NW)    
Max Wind Speed 22 mph    
Max Gust Speed 36 mph    
Visibility 9 miles    
Events Snow    
Averages and records for this station are not official NWS values.
T = Trace of Precipitation, MM = Missing Value Source: NWS Daily Summary

Daily Weather History Graph

Daily Weather History Graph

Search for Another Location

Airport or City:

Trip Planner

Search our weather history database for the weather conditions in past years. The results will help you decide how hot, cold, wet, or windy it might be!

Date:

Astronomy

Jan. 18, 2012 Rise Set
Actual Time 7:39 AM EST 5:20 PM EST
Civil Twilight 7:09 AM EST 5:50 PM EST
Nautical Twilight 6:36 AM EST 6:24 PM EST
Astronomical Twilight 6:03 AM EST 6:56 PM EST
Moon 3:07 AM EST (1/18) 12:58 PM EST (1/18)
Length of Visible Light 10h 40m
Length of Day
9h 41m
Waning Crescent, 25% of the Moon is Illuminated
Jan 18
Waning Crescent
Jan 23
New
Jan 30
First Quarter
Feb 7
Full
Feb 14
Last Quarter

Hourly Weather History & Observations

Time (EST) Temp. Windchill Dew Point Humidity Pressure Visibility Wind Dir Wind Speed Gust Speed Precip Events Conditions
12:53 AM 35.1 °F 25.5 °F 23.0 °F 61% 29.93 in 10.0 mi WNW 15.0 mph 24.2 mph N/A   Overcast
1:28 AM 33.8 °F 26.4 °F 24.8 °F 70% 29.91 in 10.0 mi NW 9.2 mph 17.3 mph 0.00 in Snow Light Snow
1:53 AM 34.0 °F 26.0 °F 24.1 °F 67% 29.95 in 10.0 mi WNW 10.4 mph 23.0 mph 0.00 in   Overcast
2:48 AM 32.0 °F 19.5 °F 21.2 °F 64% 29.93 in 10.0 mi West 21.9 mph 35.7 mph N/A   Mostly Cloudy
2:53 AM 32.0 °F 21.6 °F 21.0 °F 64% 29.97 in 10.0 mi West 15.0 mph 35.7 mph N/A   Mostly Cloudy
3:53 AM 30.9 °F 19.8 °F 21.0 °F 67% 29.99 in 10.0 mi WNW 16.1 mph 27.6 mph N/A   Overcast
4:53 AM 30.0 °F 20.0 °F 21.0 °F 69% 30.02 in 10.0 mi WNW 12.7 mph 24.2 mph 0.00 in   Overcast
5:18 AM 28.4 °F 18.0 °F 19.4 °F 69% 30.00 in 10.0 mi WNW 12.7 mph 23.0 mph N/A   Overcast
5:53 AM 28.0 °F 17.0 °F 21.0 °F 75% 30.05 in 4.0 mi NNW 13.8 mph 26.5 mph 0.00 in Snow Light Snow
6:15 AM 26.6 °F 15.2 °F 19.4 °F 74% 30.02 in 10.0 mi NW 13.8 mph 24.2 mph 0.00 in Snow Light Snow
6:38 AM 26.6 °F 15.2 °F 17.6 °F 69% 30.03 in 10.0 mi NNW 13.8 mph 21.9 mph 0.00 in   Overcast
6:50 AM 26.6 °F 14.7 °F 17.6 °F 69% 30.04 in 10.0 mi NW 15.0 mph 20.7 mph 0.00 in   Overcast
6:53 AM 27.0 °F 15.6 °F 17.1 °F 66% 30.08 in 10.0 mi NNW 13.8 mph 20.7 mph 0.00 in   Overcast
7:09 AM 26.6 °F 14.7 °F 17.6 °F 69% 30.05 in 2.5 mi NW 15.0 mph 24.2 mph 0.00 in Snow Light Snow
7:19 AM 26.6 °F 15.2 °F 17.6 °F 69% 30.05 in 3.0 mi NW 13.8 mph 19.6 mph 0.00 in Snow Light Snow
7:26 AM 26.6 °F 17.5 °F 19.4 °F 74% 30.06 in 2.0 mi NNW 9.2 mph 19.6 mph 0.00 in Snow Light Snow
7:39 AM 26.6 °F 16.8 °F 17.6 °F 69% 30.06 in 6.0 mi NW 10.4 mph 19.6 mph 0.00 in Snow Light Snow
7:53 AM 26.1 °F 16.8 °F 18.0 °F 71% 30.12 in 10.0 mi NW 9.2 mph - 0.00 in   Overcast
8:17 AM 26.6 °F 17.5 °F 15.8 °F 64% 30.09 in 10.0 mi NW 9.2 mph 20.7 mph N/A   Overcast
8:53 AM 26.1 °F 16.8 °F 14.0 °F 60% 30.16 in 8.0 mi NW 9.2 mph 18.4 mph 0.00 in Snow Light Snow
9:53 AM 26.1 °F 13.1 °F 10.9 °F 53% 30.19 in 10.0 mi NW 17.3 mph 23.0 mph 0.00 in   Overcast
10:53 AM 26.1 °F 14.5 °F 12.0 °F 55% 30.20 in 10.0 mi NW 13.8 mph 21.9 mph N/A   Overcast
11:53 AM 27.0 °F 16.1 °F 12.0 °F 53% 30.21 in 10.0 mi NNW 12.7 mph 18.4 mph 0.00 in   Overcast
12:32 PM 26.6 °F 17.5 °F 14.0 °F 59% 30.15 in 8.0 mi NW 9.2 mph 18.4 mph 0.00 in   Overcast
12:53 PM 26.1 °F 17.6 °F 15.1 °F 63% 30.19 in 9.0 mi NW 8.1 mph - 0.00 in   Mostly Cloudy
1:02 PM 26.6 °F 18.2 °F 15.8 °F 64% 30.14 in 10.0 mi WNW 8.1 mph - N/A   Overcast
1:19 PM 26.6 °F 16.2 °F 15.8 °F 64% 30.14 in 2.0 mi NW 11.5 mph 17.3 mph 0.00 in Snow Light Snow
1:44 PM 24.8 °F 15.3 °F 17.6 °F 74% 30.13 in 9.0 mi West 9.2 mph - 0.00 in   Overcast
1:53 PM 25.0 °F 15.5 °F 16.0 °F 69% 30.19 in 10.0 mi WNW 9.2 mph - 0.00 in   Overcast
2:53 PM 27.0 °F 18.0 °F 14.0 °F 58% 30.16 in 10.0 mi North 9.2 mph - N/A   Partly Cloudy
3:53 PM 26.1 °F 16.8 °F 15.1 °F 63% 30.18 in 10.0 mi North 9.2 mph - N/A   Mostly Cloudy
4:53 PM 26.1 °F 21.9 °F 14.0 °F 60% 30.19 in 10.0 mi North 3.5 mph - N/A   Overcast
5:53 PM 25.0 °F 19.3 °F 10.9 °F 55% 30.20 in 10.0 mi Variable 4.6 mph - N/A   Overcast
6:53 PM 24.1 °F 19.7 °F 10.9 °F 57% 30.20 in 10.0 mi WNW 3.5 mph - N/A   Overcast
7:53 PM 24.1 °F - 10.0 °F 55% 30.19 in 10.0 mi Calm Calm - N/A   Mostly Cloudy
8:53 PM 23.0 °F - 10.9 °F 60% 30.17 in 10.0 mi Calm Calm - N/A   Clear
9:53 PM 21.9 °F - 10.0 °F 60% 30.16 in 10.0 mi Calm Calm - N/A   Clear
10:53 PM 21.2 °F - 10.4 °F 63% 30.09 in 10.0 mi Calm Calm - N/A   Clear
11:53 PM 19.9 °F 14.9 °F 10.9 °F 68% 30.16 in 10.0 mi SSE 3.5 mph - N/A   Clear